Powrót do katalogu

NOAA 16 DEB

AktywnySSO
NORAD 41301·DEBRIS·🇺🇸 United States

Wystrzelony Sep 21, 2000 z Vandenberg Space Force Base

Loading…

Następne Przeloty (najbliższe 24 godziny)

TLE

ŚwieżeSource: Space-Track

Epoka: Sep 13, 2026, 08:06 UTC

1 41301U 00055HD  26256.33795082  .00002387  00000-0  10038-2 0  9991
2 41301  98.7048 296.9227 0018109 279.8720  80.0416 14.26680826552282

Śledź NOAA 16 DEB w czasie rzeczywistym z AllMySat

Download on the App Store